2020 HB11

Japanese version
Home page
Updated on May 30, 2020

---------------------------------------------------------------------

* Profile

Discovery Date April 18, 2020
Magnitude 22.6 mag
Discoverer Mt. Lemmon Survey

* Orbital Elements

Epoch 2020 May 1.0 TT = JDT 2458970.5                   Bell                    
M 358.32051              (2000.0)            P               Q                  
n   0.01465254     Peri.  104.53843     -0.85116626     -0.13505808             
a  16.5396908      Node   290.14525     -0.24918388     +0.95446791             
e   0.7074730      Incl.  147.29758     +0.46197770     +0.26598933             
P  67.3            H   14.99          G   0.15           U   7                  

* Magnitudes Graph

        H = 15.0  G = 0.15

---------------------------------------------------------------------

The orbital elements are published on M.P.E.C. 2020-K199.
The magnitudes graphs are made with Comet for Windows.

---------------------------------------------------------------------

Copyright(C) Seiichi Yoshida (comet@aerith.net). All rights reserved.